Regional Weather Roundup
Issued by NWS

Home | Current Version | Previous Version | Text Only | Print | Product List | Glossary Off
Versions: 1 2 3 4 5 6 7 8 9 10 11 12 13 14 15 16 17 18 19 20 21 22 23 24 25 26 27 28 29 30 31 32 33 34 35 36 37 38 39 40 41 42 43 44 45 46 47 48 49 50

000
ASUS43 KFSD 271910
RWRSD

WEATHER ROUNDUP FOR SOUTH DAKOTA
NATIONAL WEATHER SERVICE SIOUX FALLS SD
200 PM CDT WED AUG 27 2014

NOTE: "FAIR" INDICATES FEW OR NO CLOUDS BELOW 12,000 FEET WITH NO
SIGNIFICANT WEATHER AND/OR OBSTRUCTIONS TO VISIBILITY.


SDZ001>005-009-010-012>017-272000-
NORTHWEST AND NORTH CENTRAL SOUTH DAKOTA

CITY           SKY/WX    TMP DP  RH WIND       PRES   REMARKS
BUFFALO          N/A     77  58  51 SE10      30.05F
FAITH            N/A     67  63  87 SE8       30.11F
MOBRIDGE       CLOUDY    71  60  68 SE15      30.09F
$$

SDZ012>016-024>037-041>051-057-063-072>074-272000-
SOUTHWEST AND SOUTH CENTRAL SOUTH DAKOTA

CITY           SKY/WX    TMP DP  RH WIND       PRES   REMARKS
RAPID CTY ARPT PTSUNNY   73  61  65 E6        30.11F
PIERRE         MOSUNNY   75  65  70 SE10      30.07F
CUSTER         CLOUDY    67  58  72 E10       30.21F
ELLSWORTH AFB  PTSUNNY   71  62  71 E5        30.12F
PHILIP         CLOUDY    67  63  87 SE7       30.10F
PINE RIDGE     LGT RAIN  73  66  78 W3        30.08F
WINNER         CLOUDY    72  66  81 SE10      30.10F
$$

SDZ004>011-016>023-039-040-272000-
NORTHEAST SOUTH DAKOTA

CITY           SKY/WX    TMP DP  RH WIND       PRES   REMARKS
ABERDEEN       PTSUNNY   70  61  73 S8        30.13F
WATERTOWN      PTSUNNY   69  59  70 SE8       30.15F
SISSETON         N/A     73  60  63 SE8       30.14F
$$

SDZ017-020-022-023-036>040-048>070-272000-
SOUTHEAST SOUTH DAKOTA

CITY           SKY/WX    TMP DP  RH WIND       PRES   REMARKS
SIOUX FALLS    PTSUNNY   72  62  71 SE15      30.14F
HURON          MOSUNNY   75  63  66 SE12      30.10F
CHAMBERLAIN    CLOUDY    77  66  69 SE15G21   30.09F
MITCHELL       PTSUNNY   77  66  68 SE13G20   30.10F
YANKTON        CLOUDY    68  64  88 SE9       30.13R
$$

ABBREVIATIONS USED IN REMARKS
   TC - TEMPERATURE IN CELSIUS
  WCI - WIND CHILL INDEX
   HX - HEAT INDEX
  VSB - VISIBILITY




USA.gov is the U.S. government's official web portal to all federal, state and local government web resources and services.